Theta_e
340 338 339 339 340 341 342 339 333 330 329 330 333 338 339 341 340 340 340 338 340 334 341 327 328 324 322 324 326 334 337 340 338 334 337 336 337 338 339 339 337 338 338
339 340 340 341 342 342 340 333 332 335 328 329 335 336 335 336 339 337 339 339 338 340 330 327 329 325 335 336 337 339 339 341 335 327 332 338 330 337 339 338 338 340 339
341 341 341 341 338 335 329 329 329 336 338 330 331 333 336 332 339 341 339 341 339 332 332 336 328 330 332 335 332 329 326 328 320 322 337 337 340 324 324 336 337 335 334
342 340 336 335 328 330 329 328 327 328 340 342 338 338 336 333 338 338 341 342 335 329 334 339 339 342 340 341 342 339 334 328 334 328 330 338 339 339 328 336 334 338 340
342 337 330 328 333 333 335 342 338 332 331 339 336 338 340 338 340 340 339 335 334 331 338 340 340 339 342 341 340 339 336 332 332 328 335 336 336 336 335 325 324 328 336
339 327 328 337 339 341 338 339 343 340 332 336 339 335 339 341 338 339 336 338 333 330 338 337 338 341 340 339 336 336 339 337 329 330 330 327 326 335 334 340 323 324 325
326 327 337 337 340 340 340 340 341 342 336 339 339 340 337 340 339 340 339 331 332 328 336 340 338 338 338 337 338 337 331 330 324 331 329 325 330 332 324 331 324 323 323
329 329 332 337 336 340 338 336 337 339 341 342 340 337 339 337 339 340 337 332 331 330 331 337 337 341 341 338 339 337 333 329 330 331 326 327 336 338 325 324 324 324 325
334 336 335 337 340 336 339 336 335 334 335 342 341 335 338 336 340 337 335 331 330 331 334 336 339 341 341 340 340 339 337 334 330 324 323 325 331 337 326 326 326 328 339
337 337 336 335 335 339 340 335 334 333 335 340 339 338 334 340 336 328 326 329 329 330 332 336 340 341 341 340 340 340 342 338 330 328 325 323 325 327 324 325 325 325 325
338 337 337 336 337 336 332 332 332 330 330 332 339 342 339 339 333 326 325 327 329 330 334 338 341 342 341 341 341 342 342 338 332 325 326 332 324 324 324 324 324 324 325
336 337 336 336 334 332 330 333 334 335 329 328 338 337 339 336 337 332 334 330 334 336 336 338 339 340 341 341 342 342 337 331 325 322 323 323 323 322 322 323 324 326 327
341 343 337 331 330 332 334 340 342 342 335 336 336 338 339 336 340 341 341 339 337 339 340 340 342 342 341 341 342 341 338 339 329 327 326 325 325 325 326 327 327 327 326
340 336 334 332 332 339 342 343 343 341 338 337 338 339 339 337 340 339 340 342 341 343 343 344 344 340 340 340 341 341 342 343 343 335 328 328 330 329 328 326 325 324 323
340 342 337 336 337 338 343 342 341 340 337 334 336 337 338 338 338 339 340 340 338 340 342 340 340 340 340 340 338 340 342 340 341 343 343 329 321 322 321 321 321 322 322
341 343 344 342 340 339 342 340 342 342 342 342 339 340 342 342 343 342 342 340 338 339 342 339 342 342 341 341 341 342 341 342 341 341 342 341 321 321 321 321 322 323 326
340 342 344 343 342 340 342 339 340 342 343 342 344 344 343 342 340 343 343 342 340 341 342 343 343 342 340 343 343 343 343 341 341 342 342 340 329 328 323 324 326 330 336
341 341 343 343 344 345 345 340 339 342 342 344 344 343 342 341 341 342 342 341 343 342 343 343 343 343 340 343 342 343 343 342 342 342 340 336 334 335 333 328 334 339 340
343 342 343 345 341 344 346 343 341 343 343 344 344 342 343 341 342 343 342 343 343 341 342 343 343 343 344 343 343 342 343 343 343 342 342 341 337 334 335 333 337 339 342
343 342 345 346 344 342 344 343 344 345 345 343 343 342 341 342 343 343 345 342 342 343 344 344 344 344 342 342 343 343 343 344 343 343 343 344 342 341 338 334 336 340 342
344 344 345 346 343 342 344 346 344 346 344 344 343 342 342 342 343 343 345 344 344 344 343 343 344 345 343 341 342 343 340 339 340 341 343 343 343 342 341 333 333 343 345
345 344 343 345 343 344 344 345 344 346 346 346 347 348 345 341 343 345 343 343 344 343 341 343 343 341 342 342 342 342 339 339 340 340 342 341 341 341 341 338 344 345 347
344 341 340 343 341 344 344 344 345 346 346 346 346 345 344 343 344 343 345 341 344 343 343 343 344 342 343 342 343 343 344 344 341 340 340 340 340 340 341 342 344 346 347
344 343 342 342 339 341 342 344 345 345 345 345 345 346 346 345 345 343 345 342 345 342 343 342 342 343 344 343 342 343 344 346 345 342 339 340 339 340 340 343 343 344 346
344 343 343 343 342 343 340 344 343 345 345 346 343 344 345 345 344 344 344 344 345 342 339 344 341 344 343 345 343 343 346 347 346 346 345 340 339 341 343 343 343 345 346
345 344 343 343 342 343 341 344 344 345 345 345 346 347 346 345 346 346 347 344 343 346 342 339 342 341 343 344 344 344 346 347 347 346 345 345 340 341 343 344 344 344 346
Wind_Speed
18 18 17 18 17 16 15 14 14 15 16 16 15 15 15 15 16 16 16 18 18 18 18 18 19 20 22 22 20 20 19 18 17 18 18 17 16 15 16 15 16 17 16
21 17 18 17 15 14 12 12 13 11 13 13 13 13 13 14 14 16 16 18 18 17 18 18 20 22 23 21 20 19 19 18 16 17 17 15 15 14 16 16 16 15 15
21 19 16 16 14 13 12 11 12 13 10 12 13 13 12 13 14 15 16 17 16 16 19 19 21 22 22 22 22 20 16 14 13 14 15 15 15 14 14 15 16 15 15
20 17 16 15 13 12 11 12 12 13 13 11 13 13 13 14 15 15 17 16 16 17 20 20 20 19 19 18 17 18 17 15 14 12 13 15 14 13 14 15 13 14 13
20 18 17 16 14 14 14 13 13 12 13 13 13 14 14 14 15 16 17 16 16 17 18 18 17 17 17 16 15 14 15 13 12 11 12 13 13 12 12 13 11 12 12
20 17 16 16 14 13 13 14 13 14 14 14 14 15 15 14 15 16 17 15 14 17 17 17 16 16 17 15 14 11 10 10 9 9 10 11 11 13 12 11 11 11 10
19 18 16 13 13 13 13 13 14 15 13 14 14 15 15 15 16 16 16 15 15 17 18 16 14 14 15 15 14 12 10 8 7 8 9 11 13 11 11 10 10 11 11
18 17 16 14 12 12 13 13 14 14 14 12 13 15 15 16 17 16 16 14 16 17 18 15 14 15 15 14 14 14 11 10 8 7 8 10 11 9 10 10 10 10 10
17 15 14 13 12 12 12 13 12 11 13 14 13 15 15 16 16 15 13 13 17 18 18 16 15 16 12 11 13 14 13 11 8 7 7 8 9 9 9 9 9 8 8
16 13 11 12 12 12 12 12 12 11 12 12 14 15 17 18 17 17 17 17 17 18 17 17 15 14 11 11 12 11 10 11 8 8 7 6 7 6 7 7 6 6 7
15 13 12 11 11 11 12 13 13 11 12 14 16 15 17 17 19 19 21 20 19 18 18 16 14 12 9 8 9 9 9 10 8 7 6 5 6 6 6 6 6 6 6
16 15 13 13 11 12 15 16 15 15 13 17 17 18 18 19 19 21 20 21 19 17 14 12 10 9 6 5 5 8 11 11 9 7 6 6 5 6 6 6 7 6 6
18 16 14 15 14 15 18 18 13 14 17 18 18 19 19 19 19 16 15 17 16 14 11 11 8 6 5 5 1 4 10 13 12 8 6 6 6 6 6 7 6 6 6
18 19 18 18 19 22 19 16 15 15 16 16 16 16 17 17 16 15 15 13 12 12 11 8 7 4 5 6 6 6 7 11 13 14 10 7 5 6 7 6 6 7 7
22 23 22 19 20 17 18 15 15 15 15 15 15 15 15 14 12 9 7 12 11 9 10 10 11 9 6 9 6 8 10 9 10 12 14 13 8 7 7 7 8 9 9
23 24 23 20 16 17 16 18 15 13 13 14 14 14 9 10 5 7 7 9 9 10 9 8 8 7 6 7 9 7 4 7 8 8 11 12 11 10 10 10 10 11 11
24 26 24 22 18 16 15 15 13 11 9 8 8 8 9 7 5 4 5 7 9 8 9 8 6 4 2 5 6 7 8 5 4 6 8 9 12 13 12 11 12 12 12
25 22 23 20 19 17 14 13 13 9 7 5 6 7 6 5 5 6 5 6 5 7 7 6 3 3 4 2 4 5 6 7 6 6 6 8 9 11 12 12 12 12 12
24 22 23 18 16 15 17 15 13 10 6 5 5 6 6 5 4 5 6 5 5 8 7 5 3 5 3 0 1 5 7 7 6 6 7 7 8 8 10 10 11 11 12
25 23 23 19 17 16 17 15 14 13 8 7 7 6 6 4 6 8 6 3 3 6 5 3 4 1 3 3 3 6 8 9 9 3 4 6 8 8 8 7 8 9 10
26 25 25 22 19 18 16 14 13 14 11 9 9 6 6 8 7 6 8 4 4 4 4 2 2 3 1 1 3 4 4 5 5 4 2 2 5 6 8 6 5 8 9
27 26 27 25 20 18 13 12 11 12 11 10 9 7 6 7 7 7 7 6 4 3 4 4 1 1 2 3 3 2 2 3 5 4 0 2 3 4 6 7 8 8 10
30 26 26 26 21 22 16 13 13 13 11 12 10 8 6 6 4 7 7 7 6 6 5 6 1 2 3 4 5 4 3 3 4 3 2 1 2 1 3 3 4 7 9
33 26 25 22 18 22 19 18 14 12 11 10 9 7 8 7 5 7 7 9 6 6 6 7 4 1 3 4 5 5 4 5 4 3 2 2 1 1 2 2 3 3 6
34 28 25 23 20 18 19 17 15 13 14 14 7 9 11 8 8 5 6 10 8 8 9 8 6 3 1 4 4 5 7 7 7 6 4 2 5 3 2 1 2 3 4
34 28 27 25 23 18 21 23 18 15 10 14 14 9 9 9 11 11 9 7 11 9 10 11 8 7 4 1 2 4 6 8 9 9 10 6 2 3 5 5 4 6 4
Wind_Direction
160 150 144 139 134 131 127 122 125 127 128 130 127 122 117 115 113 111 107 108 102 106 110 109 110 109 107 106 109 109 108 107 104 103 102 97 100 100 96 94 95 94 93
152 148 143 141 136 139 135 132 131 125 130 133 130 127 123 123 115 116 112 113 110 112 111 110 113 112 114 109 109 107 106 106 106 105 105 97 96 101 94 92 96 91 92
151 148 142 146 142 140 140 138 137 133 128 133 133 128 123 125 120 111 113 112 110 111 112 108 112 111 110 104 104 98 102 101 100 106 106 104 94 91 99 97 92 93 94
152 149 147 142 140 138 133 132 134 135 129 125 125 115 116 121 120 117 115 111 111 116 118 115 116 113 109 108 105 99 91 94 97 102 106 99 98 86 87 94 94 97 95
156 151 145 142 136 132 132 131 131 127 133 132 128 130 124 121 119 119 114 112 113 121 125 121 116 111 109 106 98 93 90 86 91 106 104 104 103 100 90 86 99 105 103
155 149 146 147 134 135 132 127 129 127 133 133 130 128 125 123 121 121 115 108 113 123 130 126 116 105 107 105 92 90 92 74 88 102 101 99 99 94 91 89 89 100 107
150 147 143 144 144 139 134 132 131 124 122 129 128 127 131 128 124 120 116 108 119 125 135 127 118 112 111 100 86 84 85 81 88 98 96 100 102 95 95 98 89 95 98
150 148 150 149 145 140 139 136 134 134 133 133 134 133 129 126 126 120 125 108 120 128 134 135 120 105 111 95 84 84 88 80 80 87 91 98 102 99 90 92 91 92 91
152 152 148 148 145 142 139 137 137 138 140 136 132 127 129 124 127 128 130 122 125 132 137 131 120 110 107 99 88 78 73 70 75 71 90 97 99 99 85 87 89 92 93
154 152 151 146 145 142 141 139 140 142 140 135 134 131 129 127 124 121 121 122 126 130 128 129 122 114 115 101 87 74 57 53 69 65 77 85 90 88 76 79 81 76 71
158 154 151 142 145 148 143 139 136 135 139 139 131 129 129 132 121 116 112 115 118 123 129 132 132 122 102 95 84 58 38 40 56 55 65 68 73 78 71 68 67 62 56
157 152 153 143 149 147 139 131 127 118 128 139 135 131 131 133 128 120 116 116 120 120 121 129 131 120 109 66 45 50 45 46 53 52 59 64 65 66 66 67 64 59 53
151 152 148 144 147 140 133 131 134 128 124 127 130 132 136 140 132 120 119 122 123 122 121 126 126 108 119 130 155 30 58 54 57 55 59 64 60 63 62 58 60 61 54
144 139 140 144 146 136 130 130 126 126 124 125 131 134 140 141 134 130 120 123 133 134 132 127 124 121 118 80 81 105 74 65 56 56 50 54 58 63 64 64 65 65 59
144 137 134 139 146 140 132 138 134 124 123 122 128 133 137 142 139 142 132 114 125 141 128 119 118 114 96 66 79 92 86 71 51 45 45 46 56 63 72 75 72 69 66
154 146 139 137 140 141 140 138 135 134 131 128 129 132 133 149 162 136 121 124 113 129 136 124 122 105 80 72 73 64 77 73 42 35 37 44 59 69 71 71 73 70 67
158 151 144 142 143 149 145 146 152 143 140 150 152 125 136 135 154 96 131 134 116 130 144 140 131 109 59 51 46 36 32 22 30 16 33 49 65 66 71 68 67 68 68
169 165 156 152 160 157 159 150 155 150 148 145 148 150 135 169 184 159 140 116 114 149 153 146 136 149 126 110 31 355 13 21 34 16 50 71 76 71 66 70 69 67 63
178 176 172 167 165 171 172 161 170 170 166 167 177 153 156 154 147 157 145 114 118 139 139 120 129 118 86 97 343 334 329 336 350 31 64 71 73 72 67 70 74 70 60
180 174 174 172 175 179 180 179 182 189 192 205 177 181 177 164 175 179 168 135 138 145 145 158 135 106 52 22 334 323 321 316 305 326 71 78 66 65 63 61 65 62 54
179 178 180 180 182 182 185 186 182 192 184 177 187 176 205 202 200 196 189 171 165 144 206 177 137 8 19 297 306 314 322 306 310 341 301 50 68 50 44 54 57 56 48
179 185 185 186 186 185 190 190 192 187 205 202 195 196 222 223 218 210 200 201 180 194 185 175 193 57 44 23 5 40 320 292 306 315 307 126 84 48 53 70 64 59 47
186 181 179 185 201 192 189 193 190 203 215 205 198 206 196 204 221 243 233 196 203 225 199 190 186 208 25 24 36 31 351 350 338 326 296 272 293 80 77 74 51 40 29
188 184 184 190 185 189 199 195 200 197 202 208 210 208 213 211 244 209 227 220 226 217 222 213 221 205 39 44 63 50 32 33 7 328 298 309 295 54 116 95 60 14 358
191 189 192 193 194 204 201 190 200 224 224 239 217 208 214 213 216 231 241 229 241 228 210 208 217 226 82 57 73 64 92 51 40 46 14 306 293 275 172 357 311 352 331
194 197 197 200 201 201 202 204 209 225 223 221 227 228 227 223 219 225 242 247 222 224 226 219 223 224 236 244 55 54 60 51 40 42 38 26 308 274 267 285 321 316 317